CW1988 Weather Reports


Display with metric or nautical units.
time (UTC)temp
F
wind
direction
speed
MPH
gust
MPH
rain 1hr
in
rain 24hr
in
rain mn
in
humidity
%
barometer
mb
20200705235304 86 124 0.0 0.0 0.00 0.00 0.00 53 1011.7
20200705234804 86 124 0.0 0.0 0.00 0.00 0.00 53 1011.7
20200705234304 86 128 0.0 0.0 0.00 0.00 0.00 52 1011.7
20200705233804 86 128 0.0 0.0 0.00 0.00 0.00 53 1011.8
20200705233304 86 126 0.0 0.0 0.00 0.00 0.00 52 1011.7
20200705232804 86 126 0.0 0.0 0.00 0.00 0.00 53 1011.8
20200705232304 86 126 0.0 0.0 0.00 0.00 0.00 54 1011.7
20200705231804 86 126 0.0 0.0 0.00 0.00 0.00 53 1011.7
20200705231304 87 122 0.0 0.0 0.00 0.00 0.00 52 1011.7
20200705230804 87 207 0.0 0.0 0.00 0.00 0.00 51 1011.7
20200705230304 87 234 0.0 0.0 0.00 0.00 0.00 51 1011.8
20200705225804 86 234 0.0 0.0 0.00 0.00 0.00 51 1011.8
20200705225304 86 234 0.0 0.0 0.00 0.00 0.00 52 1011.7
20200705224805 87 234 0.0 0.0 0.00 0.00 0.00 52 1011.7
20200705224304 87 234 0.0 0.0 0.00 0.00 0.00 54 1011.6
20200705223804 87 234 0.0 0.0 0.00 0.00 0.00 51 1011.6
20200705223304 87 234 0.0 0.0 0.00 0.00 0.00 53 1011.7
20200705222804 86 234 0.0 0.0 0.00 0.00 0.00 54 1011.7
20200705222304 86 234 0.0 1.0 0.00 0.00 0.00 54 1011.9
20200705221804 86 234 0.0 0.0 0.00 0.00 0.00 54 1012.0
20200705221303 86 234 0.0 0.0 0.00 0.00 0.00 53 1012.0
20200705220803 86 234 0.0 1.0 0.00 0.00 0.00 53 1012.2
20200705220304 86 234 0.0 1.0 0.00 0.00 0.00 54 1012.3
20200705215803 86 234 0.0 0.0 0.00 0.00 0.00 55 1012.4
20200705215303 86 234 0.0 1.0 0.00 0.00 0.00 53 1012.4
20200705214804 86 234 0.0 3.0 0.00 0.00 0.00 53 1012.4
20200705214304 85 234 0.0 0.0 0.00 0.00 0.00 54 1012.5
20200705213804 85 232 0.0 3.0 0.00 0.00 0.00 55 1012.5
20200705213303 85 239 0.0 5.0 0.00 0.00 0.00 55 1012.6
20200705212804 86 248 1.0 3.0 0.00 0.00 0.00 53 1012.5
20200705212304 86 7 0.0 3.0 0.00 0.00 0.00 52 1012.7
20200705211804 86 46 0.0 1.0 0.00 0.00 0.00 53 1012.7
20200705211304 86 112 0.0 1.0 0.00 0.00 0.00 53 1012.7
20200705210804 86 118 0.0 2.0 0.00 0.00 0.00 54 1012.7
20200705210304 85 130 0.0 2.0 0.00 0.00 0.00 55 1012.7
20200705205804 86 119 0.0 1.0 0.00 0.00 0.00 53 1012.8
20200705205304 86 118 0.0 1.0 0.00 0.00 0.00 53 1012.8
20200705204804 86 127 0.0 1.0 0.00 0.00 0.00 52 1012.7
20200705204304 87 128 0.0 1.0 0.00 0.00 0.00 50 1012.7
20200705203804 89 120 0.0 2.0 0.00 0.00 0.00 48 1012.9
20200705203305 89 108 0.0 1.0 0.00 0.00 0.00 48 1012.9
20200705202805 90 104 0.0 1.0 0.00 0.00 0.00 47 1013.0
20200705202304 91 112 0.0 1.0 0.00 0.00 0.00 45 1012.9
20200705201804 91 89 0.0 1.0 0.00 0.00 0.00 43 1012.9
20200705201304 91 45 0.0 0.0 0.00 0.00 0.00 45 1012.8
20200705200804 91 45 0.0 0.0 0.00 0.00 0.00 42 1012.7
20200705200305 92 45 0.0 0.0 0.00 0.00 0.00 42 1012.7
20200705195804 92 45 0.0 3.0 0.00 0.00 0.00 41 1012.7
20200705195303 93 38 1.0 6.0 0.00 0.00 0.00 39 1012.6
20200705194804 93 247 3.0 9.0 0.00 0.00 0.00 38 1012.6
20200705194304 93 245 1.0 7.0 0.00 0.00 0.00 40 1012.7
20200705193804 93 252 1.0 7.0 0.00 0.00 0.00 40 1012.7
20200705193304 92 41 0.0 5.0 0.00 0.00 0.00 42 1012.8
20200705192804 92 33 1.0 6.0 0.00 0.00 0.00 41 1012.8
20200705192303 92 243 0.0 5.0 0.00 0.00 0.00 41 1012.8
20200705191804 92 250 0.0 3.0 0.00 0.00 0.00 42 1013.0
20200705191304 92 238 0.0 3.0 0.00 0.00 0.00 42 1013.0
20200705190804 91 247 1.0 7.0 0.00 0.00 0.00 43 1013.0
20200705190304 91 53 0.0 3.0 0.00 0.00 0.00 43 1012.9
20200705185804 91 27 0.0 1.0 0.00 0.00 0.00 43 1013.0
20200705185303 91 22 0.0 2.0 0.00 0.00 0.00 44 1013.1
20200705184804 91 42 0.0 2.0 0.00 0.00 0.00 42 1013.1
20200705184304 91 30 0.0 2.0 0.00 0.00 0.00 43 1013.1
20200705183804 91 281 0.0 1.0 0.00 0.00 0.00 41 1013.3
20200705183303 91 241 0.0 2.0 0.00 0.00 0.00 44 1013.2
20200705182803 91 234 0.0 3.0 0.00 0.00 0.00 41 1013.3
20200705182304 91 41 0.0 2.0 0.00 0.00 0.00 43 1013.3
20200705181804 91 43 0.0 2.0 0.00 0.00 0.00 44 1013.3
20200705181303 90 26 0.0 0.0 0.00 0.00 0.00 44 1013.4
20200705180804 89 26 0.0 0.0 0.00 0.00 0.00 46 1013.6
20200705180304 89 26 0.0 0.0 0.00 0.00 0.00 47 1013.5
20200705175804 89 26 0.0 0.0 0.00 0.00 0.00 47 1013.6
20200705175303 89 26 0.0 0.0 0.00 0.00 0.00 46 1013.7
20200705174804 90 30 0.0 1.0 0.00 0.00 0.00 44 1013.6
20200705174304 90 40 0.0 1.0 0.00 0.00 0.00 46 1013.6
20200705173803 89 36 0.0 1.0 0.00 0.00 0.00 47 1013.6
20200705173304 89 292 0.0 2.0 0.00 0.00 0.00 47 1013.7
20200705172803 89 292 0.0 1.0 0.00 0.00 0.00 47 1013.7
20200705172303 89 285 0.0 1.0 0.00 0.00 0.00 47 1013.8
20200705171804 88 271 0.0 0.0 0.00 0.00 0.00 50 1013.8
20200705171304 88 272 0.0 2.0 0.00 0.00 0.00 48 1013.8
20200705170804 88 82 0.0 2.0 0.00 0.00 0.00 49 1013.9
20200705170303 87 82 0.0 0.0 0.00 0.00 0.00 50 1014.0
20200705165804 87 238 0.0 5.0 0.00 0.00 0.00 50 1014.0
20200705165305 87 238 3.0 7.0 0.00 0.00 0.00 48 1014.0
20200705164804 87 231 2.0 7.0 0.00 0.00 0.00 49 1014.1
20200705164304 87 97 2.0 5.0 0.00 0.00 0.00 48 1014.1
20200705163804 87 93 0.0 3.0 0.00 0.00 0.00 48 1014.1
20200705163304 86 93 1.0 5.0 0.00 0.00 0.00 50 1014.1
20200705162804 86 92 2.0 5.0 0.00 0.00 0.00 47 1014.3
20200705162304 86 83 0.0 7.0 0.00 0.00 0.00 48 1014.3
20200705161804 86 137 0.0 7.0 0.00 0.00 0.00 47 1014.4
20200705161304 86 143 1.0 3.0 0.00 0.00 0.00 48 1014.4
20200705160804 86 143 0.0 2.0 0.00 0.00 0.00 48 1014.4
20200705160304 86 143 0.0 3.0 0.00 0.00 0.00 47 1014.4
20200705155804 86 143 0.0 3.0 0.00 0.00 0.00 47 1014.3
20200705155304 85 143 1.0 3.0 0.00 0.00 0.00 47 1014.4
20200705154803 85 143 0.0 3.0 0.00 0.00 0.00 48 1014.5
20200705154304 85 143 1.0 3.0 0.00 0.00 0.00 47 1014.5
20200705153803 85 143 1.0 3.0 0.00 0.00 0.00 47 1014.4
20200705153304 85 143 2.0 3.0 0.00 0.00 0.00 47 1014.4
20200705152803 84 148 0.0 3.0 0.00 0.00 0.00 49 1014.4
20200705152304 84 153 0.0 3.0 0.00 0.00 0.00 52 1014.3
20200705151804 83 153 1.0 3.0 0.00 0.00 0.00 53 1014.3
20200705151304 83 153 0.0 5.0 0.00 0.00 0.00 55 1014.4
20200705150804 83 152 2.0 3.0 0.00 0.00 0.00 54 1014.4
20200705150303 83 152 0.0 6.0 0.00 0.00 0.00 55 1014.5
20200705145803 83 150 2.0 6.0 0.00 0.00 0.00 55 1014.4
20200705145304 83 148 2.0 5.0 0.00 0.00 0.00 55 1014.3
20200705144804 82 148 0.0 3.0 0.00 0.00 0.00 56 1014.4
20200705144304 82 148 2.0 3.0 0.00 0.00 0.00 56 1014.4
20200705143804 82 148 1.0 3.0 0.00 0.00 0.00 59 1014.3
20200705143304 81 148 0.0 3.0 0.00 0.00 0.00 60 1014.4
20200705142804 81 148 1.0 3.0 0.00 0.00 0.00 61 1014.5
20200705142303 81 148 2.0 3.0 0.00 0.00 0.00 60 1014.5
20200705141805 81 147 1.0 3.0 0.00 0.00 0.00 61 1014.5
20200705141304 80 147 2.0 6.0 0.00 0.00 0.00 62 1014.6
20200705140803 80 111 0.0 2.0 0.00 0.00 0.00 63 1014.5
20200705140304 79 111 0.0 2.0 0.00 0.00 0.00 63 1014.4
20200705135804 79 111 0.0 2.0 0.00 0.00 0.00 64 1014.4
20200705135303 79 112 2.0 5.0 0.00 0.00 0.00 64 1014.3
20200705134804 78 106 0.0 6.0 0.00 0.00 0.00 65 1014.4
20200705134304 78 94 1.0 5.0 0.00 0.00 0.00 67 1014.5
20200705133804 78 94 0.0 0.0 0.00 0.00 0.00 68 1014.4
20200705133304 77 94 0.0 0.0 0.00 0.00 0.00 69 1014.5
20200705132804 77 94 0.0 0.0 0.00 0.00 0.00 71 1014.5
20200705132304 76 94 0.0 1.0 0.00 0.00 0.00 72 1014.6
20200705131804 76 94 0.0 0.0 0.00 0.00 0.00 74 1014.6
20200705131303 75 94 0.0 1.0 0.00 0.00 0.00 75 1014.6
20200705130804 75 94 0.0 2.0 0.00 0.00 0.00 77 1014.5
20200705130303 74 94 0.0 1.0 0.00 0.00 0.00 81 1014.5
20200705125804 73 94 0.0 0.0 0.00 0.00 0.00 83 1014.5
20200705125304 73 94 0.0 1.0 0.00 0.00 0.00 86 1014.4
20200705124805 72 94 0.0 0.0 0.00 0.00 0.00 88 1014.4
20200705124304 71 94 0.0 0.0 0.00 0.00 0.00 90 1014.5
20200705123804 70 94 0.0 0.0 0.00 0.00 0.00 91 1014.5
20200705123304 70 94 0.0 0.0 0.00 0.00 0.00 92 1014.6
20200705122805 69 94 0.0 0.0 0.00 0.00 0.00 92 1014.6
20200705122304 69 94 0.0 0.0 0.00 0.00 0.00 92 1014.6
20200705121804 68 94 0.0 0.0 0.00 0.00 0.00 92 1014.6
20200705121304 67 94 0.0 0.0 0.00 0.00 0.00 93 1014.6
20200705120804 67 94 0.0 0.0 0.00 0.00 0.00 93 1014.6
20200705120304 67 94 0.0 0.0 0.00 0.00 0.00 92 1014.5
20200705115803 66 94 0.0 0.0 0.00 0.00 0.00 92 1014.5
20200705115306 66 94 0.0 0.0 0.00 0.00 0.00 92 1014.3
20200705114803 66 94 0.0 0.0 0.00 0.00 0.00 92 1014.4
20200705114304 66 94 0.0 0.0 0.00 0.00 0.00 92 1014.3
20200705113804 65 94 0.0 0.0 0.00 0.00 0.00 92 1014.3
20200705113304 65 94 0.0 0.0 0.00 0.00 0.00 92 1014.3
20200705112805 65 94 0.0 0.0 0.00 0.00 0.00 92 1014.3
20200705112304 65 94 0.0 0.0 0.00 0.00 0.00 92 1014.2
20200705111804 64 94 0.0 0.0 0.00 0.00 0.00 92 1014.2
20200705111304 64 94 0.0 0.0 0.00 0.00 0.00 92 1014.3
20200705110803 64 94 0.0 0.0 0.00 0.00 0.00 92 1014.3
20200705110303 64 94 0.0 0.0 0.00 0.00 0.00 92 1014.2
20200705105804 64 94 0.0 0.0 0.00 0.00 0.00 92 1014.1
20200705105306 64 94 0.0 0.0 0.00 0.00 0.00 91 1014.2
20200705104804 64 94 0.0 0.0 0.00 0.00 0.00 91 1014.1
20200705104304 64 94 0.0 0.0 0.00 0.00 0.00 91 1014.0
20200705103804 64 94 0.0 0.0 0.00 0.00 0.00 91 1014.0
20200705103303 64 94 0.0 0.0 0.00 0.00 0.00 91 1013.9
20200705102804 64 94 0.0 0.0 0.00 0.00 0.00 91 1013.9
20200705102305 64 94 0.0 0.0 0.00 0.00 0.00 91 1013.8
20200705101804 64 94 0.0 0.0 0.00 0.00 0.00 91 1013.7
20200705101304 64 94 0.0 0.0 0.00 0.00 0.00 91 1013.8
20200705100803 64 94 0.0 0.0 0.00 0.00 0.00 91 1013.8
20200705100306 64 94 0.0 0.0 0.00 0.00 0.00 91 1013.8
20200705095804 64 94 0.0 0.0 0.00 0.00 0.00 90 1013.7
20200705095307 64 94 0.0 0.0 0.00 0.00 0.00 90 1013.7
20200705094803 64 94 0.0 0.0 0.00 0.00 0.00 90 1013.7
20200705094304 64 94 0.0 0.0 0.00 0.00 0.00 90 1013.8
20200705093803 64 94 0.0 0.0 0.00 0.00 0.00 90 1013.7
20200705093303 64 94 0.0 0.0 0.00 0.00 0.00 90 1013.6
20200705092804 64 94 0.0 0.0 0.00 0.00 0.00 89 1013.6
20200705092306 64 94 0.0 0.0 0.00 0.00 0.00 89 1013.5
20200705091804 64 94 0.0 0.0 0.00 0.00 0.00 89 1013.5
20200705091304 64 94 0.0 0.0 0.00 0.00 0.00 89 1013.5
20200705090804 64 94 0.0 0.0 0.00 0.00 0.00 89 1013.5
20200705090304 64 94 0.0 0.0 0.00 0.00 0.00 89 1013.4
20200705085804 64 94 0.0 0.0 0.00 0.00 0.00 89 1013.3
20200705085305 64 94 0.0 0.0 0.00 0.00 0.00 89 1013.4
20200705084804 65 94 0.0 0.0 0.00 0.00 0.00 89 1013.4
20200705084304 65 94 0.0 0.0 0.00 0.00 0.00 88 1013.4
20200705083803 65 94 0.0 0.0 0.00 0.00 0.00 88 1013.4
20200705083304 65 94 0.0 0.0 0.00 0.00 0.00 88 1013.5
20200705082803 65 94 0.0 0.0 0.00 0.00 0.00 88 1013.5
20200705082306 65 94 0.0 0.0 0.00 0.00 0.00 88 1013.5
20200705081804 65 94 0.0 0.0 0.00 0.00 0.00 88 1013.6
20200705081304 65 94 0.0 0.0 0.00 0.00 0.00 87 1013.5
20200705080804 65 94 0.0 0.0 0.00 0.00 0.00 87 1013.4
20200705080304 65 94 0.0 0.0 0.00 0.00 0.00 87 1013.5
20200705075804 65 94 0.0 0.0 0.00 0.00 0.00 87 1013.6
20200705075305 65 94 0.0 0.0 0.00 0.00 0.00 87 1013.7
20200705074803 65 94 0.0 0.0 0.00 0.00 0.00 87 1013.7
20200705074304 65 94 0.0 0.0 0.00 0.00 0.00 86 1013.7
20200705073804 65 94 0.0 0.0 0.00 0.00 0.00 86 1013.7
20200705073303 65 94 0.0 0.0 0.00 0.00 0.00 86 1013.7
20200705072803 66 94 0.0 0.0 0.00 0.00 0.00 86 1013.7
20200705072306 66 94 0.0 0.0 0.00 0.00 0.00 85 1013.7
20200705071803 66 94 0.0 0.0 0.00 0.00 0.00 85 1013.6
20200705071303 66 94 0.0 0.0 0.00 0.00 0.00 85 1013.7
20200705070804 66 94 0.0 0.0 0.00 0.00 0.00 85 1013.8
20200705070304 66 94 0.0 0.0 0.00 0.00 0.00 84 1013.9
20200705065803 66 94 0.0 0.0 0.00 0.00 0.00 84 1014.0
20200705065303 66 94 0.0 0.0 0.00 0.00 0.00 84 1014.1
20200705064804 66 94 0.0 0.0 0.00 0.00 0.00 84 1014.1
20200705064304 67 94 0.0 0.0 0.00 0.00 0.00 84 1014.0
20200705063804 67 94 0.0 0.0 0.00 0.00 0.00 83 1014.1
20200705063304 67 94 0.0 0.0 0.00 0.00 0.00 83 1014.2
20200705062804 67 94 0.0 0.0 0.00 0.00 0.00 83 1014.2
20200705062305 67 94 0.0 0.0 0.00 0.00 0.00 83 1014.2
20200705061804 67 94 0.0 0.0 0.00 0.00 0.00 82 1014.2
20200705061303 67 94 0.0 0.0 0.00 0.00 0.00 82 1014.2
20200705060803 67 94 0.0 0.0 0.00 0.00 0.00 82 1014.2
20200705060304 68 94 0.0 0.0 0.00 0.00 0.00 81 1014.2
20200705055804 68 94 0.0 0.0 0.00 0.00 0.00 81 1014.3
20200705055304 68 94 0.0 0.0 0.00 0.00 0.00 81 1014.3
20200705054804 68 94 0.0 0.0 0.00 0.00 0.00 80 1014.3
20200705054304 68 94 0.0 0.0 0.00 0.00 0.00 80 1014.4
20200705053803 68 94 0.0 0.0 0.00 0.00 0.00 80 1014.4
20200705053304 68 94 0.0 0.0 0.00 0.00 0.00 80 1014.3
20200705052803 69 94 0.0 0.0 0.00 0.00 0.00 79 1014.4
20200705052304 69 94 0.0 0.0 0.00 0.00 0.00 79 1014.4
20200705051804 69 94 0.0 0.0 0.00 0.00 0.00 78 1014.5
20200705051304 69 94 0.0 0.0 0.00 0.00 0.00 78 1014.4
20200705050804 69 94 0.0 0.0 0.00 0.00 0.00 77 1014.3
20200705050305 69 94 0.0 0.0 0.00 0.00 0.00 77 1014.3
20200705045804 70 94 0.0 0.0 0.00 0.00 0.00 76 1014.2
20200705045304 70 94 0.0 0.0 0.00 0.00 0.00 76 1014.2
20200705044804 70 94 0.0 0.0 0.00 0.00 0.00 76 1014.2
20200705044304 70 94 0.0 0.0 0.00 0.00 0.00 75 1014.2
20200705043804 70 94 0.0 0.0 0.00 0.00 0.00 75 1014.2
20200705043304 70 94 0.0 0.0 0.00 0.00 0.00 75 1014.2
20200705042804 71 94 0.0 0.0 0.00 0.00 0.00 74 1014.2
20200705042304 71 94 0.0 0.0 0.00 0.00 0.00 74 1014.1
20200705041804 71 94 0.0 0.0 0.00 0.00 0.00 74 1014.1
20200705041303 71 94 0.0 0.0 0.00 0.00 0.00 74 1014.0
20200705040804 71 94 0.0 0.0 0.00 0.00 0.00 73 1013.9
20200705040304 72 94 0.0 0.0 0.00 0.00 0.00 73 1014.0
20200705035804 72 94 0.0 0.0 0.00 0.00 0.00 72 1014.0
20200705035304 72 94 0.0 0.0 0.00 0.00 0.00 72 1013.9
20200705034804 72 94 0.0 0.0 0.00 0.00 0.00 71 1013.9
20200705034304 72 94 0.0 0.0 0.00 0.00 0.00 71 1013.9
20200705033804 73 94 0.0 0.0 0.00 0.00 0.00 70 1013.8
20200705033304 73 94 0.0 0.0 0.00 0.00 0.00 70 1013.8
20200705032804 73 94 0.0 0.0 0.00 0.00 0.00 69 1013.9
20200705032305 73 94 0.0 0.0 0.00 0.00 0.00 68 1013.8
20200705031804 74 94 0.0 0.0 0.00 0.00 0.00 68 1013.8
20200705031304 74 94 0.0 0.0 0.00 0.00 0.00 67 1013.7
20200705030804 74 94 0.0 0.0 0.00 0.00 0.00 67 1013.7
20200705030303 74 94 0.0 0.0 0.00 0.00 0.00 66 1013.7
20200705025804 75 94 0.0 0.0 0.00 0.00 0.00 65 1013.7
20200705025303 75 94 0.0 0.0 0.00 0.00 0.00 65 1013.7
20200705024804 75 94 0.0 0.0 0.00 0.00 0.00 64 1013.6
20200705024304 75 94 0.0 0.0 0.00 0.00 0.00 64 1013.6
20200705023804 76 94 0.0 0.0 0.00 0.00 0.00 63 1013.5
20200705023304 76 94 0.0 0.0 0.00 0.00 0.00 62 1013.5
20200705022804 76 94 0.0 0.0 0.00 0.00 0.00 61 1013.4
20200705022304 77 94 0.0 0.0 0.00 0.00 0.00 60 1013.3
20200705021804 77 94 0.0 0.0 0.00 0.00 0.00 60 1013.3
20200705021303 78 94 0.0 0.0 0.00 0.00 0.00 59 1013.2
20200705020804 78 94 0.0 0.0 0.00 0.00 0.00 59 1013.2
20200705020304 78 94 0.0 0.0 0.00 0.00 0.00 57 1013.2
20200705015804 79 94 0.0 0.0 0.00 0.00 0.00 56 1013.3
20200705015304 79 94 0.0 0.0 0.00 0.00 0.00 56 1013.3
20200705014803 80 94 0.0 0.0 0.00 0.00 0.00 54 1013.3
20200705014304 80 94 0.0 0.0 0.00 0.00 0.00 53 1013.4
20200705013804 80 94 0.0 0.0 0.00 0.00 0.00 53 1013.4
20200705013304 81 94 0.0 0.0 0.00 0.00 0.00 52 1013.3
20200705012804 81 94 0.0 0.0 0.00 0.00 0.00 51 1013.3
20200705012304 81 94 0.0 0.0 0.00 0.00 0.00 51 1013.4
20200705011804 82 94 0.0 0.0 0.00 0.00 0.00 49 1013.4
20200705011304 82 94 0.0 0.0 0.00 0.00 0.00 49 1013.3
20200705010804 82 94 0.0 0.0 0.00 0.00 0.00 49 1013.4
20200705010304 82 94 0.0 0.0 0.00 0.00 0.00 48 1013.3
20200705005804 83 94 0.0 0.0 0.00 0.00 0.00 47 1013.5
20200705005304 83 94 0.0 0.0 0.00 0.00 0.00 46 1013.4
20200705004804 83 94 0.0 0.0 0.00 0.00 0.00 45 1013.4
20200705004304 83 94 0.0 0.0 0.00 0.00 0.00 45 1013.3
20200705003803 83 94 0.0 1.0 0.00 0.00 0.00 45 1013.3
20200705003304 84 94 0.0 0.0 0.00 0.00 0.00 45 1013.3
20200705002804 84 94 0.0 0.0 0.00 0.00 0.00 44 1013.2
20200705002304 84 94 0.0 0.0 0.00 0.00 0.00 44 1013.3
20200705001804 84 94 0.0 0.0 0.00 0.00 0.00 42 1013.2
20200705001304 84 94 0.0 0.0 0.00 0.00 0.00 43 1013.2
20200705000803 85 94 0.0 1.0 0.00 0.00 0.00 43 1013.1
20200705000304 85 94 0.0 1.0 0.00 0.00 0.00 43 1013.2
20200704235803 85 94 0.0 1.0 0.00 0.00 0.00 42 1013.3